FW3204 Weather Reports


Display with metric or nautical units.
time (UTC)temp
F
wind
direction
speed
MPH
gust
MPH
rain 1hr
in
rain 24hr
in
rain mn
in
humidity
%
barometer
mb
20260509201053 71 32 2.0 6.0 0.00 0.00 0.00 37 1010.1
20260509200551 71 62 0.0 3.0 0.00 0.00 0.00 38 1010.3
20260509200056 71 62 0.0 4.0 0.00 0.00 0.00 36 1010.3
20260509195552 71 62 0.0 4.0 0.00 0.00 0.00 39 1010.3
20260509195052 71 71 1.0 4.0 0.00 0.00 0.00 37 1010.3
20260509194551 72 64 1.0 4.0 0.00 0.00 0.00 36 1010.4
20260509194051 72 50 1.0 5.0 0.00 0.00 0.00 37 1010.4
20260509193551 72 78 1.0 5.0 0.00 0.00 0.00 37 1010.4
20260509193056 72 67 0.0 5.0 0.00 0.00 0.00 36 1010.3
20260509192550 72 62 2.0 5.0 0.00 0.00 0.00 37 1010.3
20260509192050 71 65 1.0 9.0 0.00 0.00 0.00 38 1010.3
20260509191558 70 73 2.0 9.0 0.00 0.00 0.00 38 1010.2
20260509191048 70 72 2.0 6.0 0.00 0.00 0.00 37 1010.3
20260509190545 70 83 1.0 5.0 0.00 0.00 0.00 37 1010.3
20260509190050 70 355 2.0 6.0 0.00 0.00 0.00 38 1010.5
20260509185544 69 92 2.0 6.0 0.00 0.00 0.00 38 1010.7
20260509185044 70 94 3.0 7.0 0.00 0.00 0.00 36 1010.8
20260509184555 71 77 1.0 4.0 0.00 0.00 0.00 36 1010.8
20260509184041 70 13 1.0 4.0 0.00 0.00 0.00 36 1011.0
20260509183542 70 86 2.0 5.0 0.00 0.00 0.00 35 1011.0
20260509183050 70 44 1.0 5.0 0.00 0.00 0.00 36 1010.9
20260509182539 69 94 1.0 6.0 0.00 0.00 0.00 38 1011.2
20260509182037 69 97 2.0 6.0 0.00 0.00 0.00 36 1011.0
20260509181536 68 59 0.0 9.0 0.00 0.00 0.00 38 1011.0
20260509181036 68 82 2.0 9.0 0.00 0.00 0.00 37 1011.2
20260509180534 68 53 1.0 4.0 0.00 0.00 0.00 37 1011.4
20260509180035 68 73 1.0 5.0 0.00 0.00 0.00 38 1011.3
20260509175534 68 72 1.0 5.0 0.00 0.00 0.00 38 1011.3
20260509175033 67 12 1.0 6.0 0.00 0.00 0.00 37 1011.4
20260509174532 67 337 1.0 6.0 0.00 0.00 0.00 39 1011.5
20260509174032 66 41 1.0 5.0 0.00 0.00 0.00 39 1011.7
20260509173530 66 51 0.0 4.0 0.00 0.00 0.00 41 1011.7
20260509173031 66 53 0.0 4.0 0.00 0.00 0.00 41 1011.8
20260509172530 66 54 0.0 3.0 0.00 0.00 0.00 40 1011.9
20260509172030 66 54 0.0 3.0 0.00 0.00 0.00 40 1012.0
20260509171531 66 54 0.0 3.0 0.00 0.00 0.00 39 1012.1
20260509171029 66 54 1.0 3.0 0.00 0.00 0.00 40 1012.3
20260509170529 67 54 0.0 3.0 0.00 0.00 0.00 38 1012.2
20260509170029 67 58 0.0 4.0 0.00 0.00 0.00 38 1012.3
20260509165529 67 54 0.0 3.0 0.00 0.00 0.00 38 1012.5
20260509165028 67 5 1.0 3.0 0.00 0.00 0.00 38 1012.4
20260509164528 66 338 0.0 4.0 0.00 0.00 0.00 40 1012.3
20260509164029 66 337 0.0 3.0 0.00 0.00 0.00 39 1012.3
20260509163527 67 330 0.0 8.0 0.00 0.00 0.00 39 1012.2
20260509163037 67 311 1.0 10.0 0.00 0.00 0.00 39 1012.2
20260509162527 67 117 2.0 10.0 0.00 0.00 0.00 39 1012.0
20260509162027 67 90 2.0 6.0 0.00 0.00 0.00 39 1011.9
20260509161526 67 26 0.0 8.0 0.00 0.00 0.00 38 1011.9
20260509161027 67 304 2.0 9.0 0.00 0.00 0.00 38 1011.9
20260509160525 67 11 2.0 9.0 0.00 0.00 0.00 38 1011.8
20260509160025 66 41 1.0 5.0 0.00 0.00 0.00 39 1011.8
20260509155523 66 65 1.0 5.0 0.00 0.00 0.00 40 1011.9
20260509155023 66 63 0.0 4.0 0.00 0.00 0.00 41 1011.9
20260509154525 65 84 0.0 4.0 0.00 0.00 0.00 41 1012.0
20260509154022 65 84 0.0 4.0 0.00 0.00 0.00 40 1012.1
20260509153521 65 84 0.0 4.0 0.00 0.00 0.00 39 1012.1
20260509153026 65 84 0.0 3.0 0.00 0.00 0.00 38 1012.2
20260509152521 65 84 0.0 4.0 0.00 0.00 0.00 39 1012.3
20260509152021 66 84 2.0 4.0 0.00 0.00 0.00 38 1012.2
20260509151520 66 84 2.0 7.0 0.00 0.00 0.00 36 1012.3
20260509151019 66 85 0.0 7.0 0.00 0.00 0.00 38 1012.3
20260509150523 67 76 1.0 3.0 0.00 0.00 0.00 36 1012.3
20260509150017 66 76 0.0 2.0 0.00 0.00 0.00 39 1012.3
20260509145516 64 76 0.0 3.0 0.00 0.00 0.00 38 1012.3
20260509145015 64 76 0.0 3.0 0.00 0.00 0.00 39 1012.3
20260509144513 63 76 0.0 2.0 0.00 0.00 0.00 38 1012.3
20260509144015 63 76 0.0 3.0 0.00 0.00 0.00 41 1012.5
20260509143511 62 76 0.0 3.0 0.00 0.00 0.00 42 1012.5
20260509143010 62 76 0.0 2.0 0.00 0.00 0.00 43 1012.5
20260509142513 62 76 0.0 4.0 0.00 0.00 0.00 43 1012.6
20260509142007 61 76 0.0 4.0 0.00 0.00 0.00 44 1012.7
20260509141506 61 76 0.0 3.0 0.00 0.00 0.00 44 1012.6
20260509141005 60 76 0.0 4.0 0.00 0.00 0.00 45 1012.7
20260509140503 60 76 1.0 4.0 0.00 0.00 0.00 44 1012.8
20260509140003 59 80 0.0 2.0 0.00 0.00 0.00 44 1012.7
20260509135502 58 80 0.0 2.0 0.00 0.00 0.00 45 1012.6
20260509135004 58 80 0.0 3.0 0.00 0.00 0.00 45 1012.7
20260509134501 57 80 0.0 3.0 0.00 0.00 0.00 44 1012.6
20260509134100 57 79 0.0 2.0 0.00 0.00 0.00 45 1012.4
20260509133603 57 80 0.0 2.0 0.00 0.00 0.00 46 1012.4
20260509133058 56 80 0.0 2.0 0.00 0.00 0.00 47 1012.4
20260509132558 56 80 0.0 4.0 0.00 0.00 0.00 47 1012.5
20260509132100 57 80 0.0 4.0 0.00 0.00 0.00 46 1012.4
20260509131555 57 84 0.0 3.0 0.00 0.00 0.00 46 1012.6
20260509131054 57 84 0.0 2.0 0.00 0.00 0.00 46 1012.4
20260509130556 56 84 0.0 2.0 0.00 0.00 0.00 45 1012.6
20260509130105 57 84 0.0 3.0 0.00 0.00 0.00 45 1012.8
20260509125553 57 84 0.0 4.0 0.00 0.00 0.00 46 1012.7
20260509125054 57 86 0.0 4.0 0.00 0.00 0.00 46 1012.8
20260509124556 56 87 0.0 0.0 0.00 0.00 0.00 46 1012.7
20260509124055 56 87 0.0 1.0 0.00 0.00 0.00 46 1012.7
20260509123551 56 87 0.0 1.0 0.00 0.00 0.00 46 1012.8
20260509123052 56 87 0.0 3.0 0.00 0.00 0.00 45 1012.8
20260509122550 56 87 0.0 3.0 0.00 0.00 0.00 46 1012.6
20260509122048 55 87 0.0 2.0 0.00 0.00 0.00 45 1012.7
20260509121550 55 87 0.0 1.0 0.00 0.00 0.00 46 1012.6
20260509121049 55 87 0.0 2.0 0.00 0.00 0.00 46 1012.6
20260509120546 55 87 0.0 2.0 0.00 0.00 0.00 47 1012.5
20260509120045 55 87 0.0 2.0 0.00 0.00 0.00 47 1012.5
20260509115544 56 87 0.0 0.0 0.00 0.00 0.00 46 1012.6
20260509115044 56 87 0.0 0.0 0.00 0.00 0.00 46 1012.5
20260509114552 56 87 0.0 0.0 0.00 0.00 0.00 46 1012.6
20260509114044 56 87 0.0 4.0 0.00 0.00 0.00 45 1012.6
20260509113545 56 87 0.0 4.0 0.00 0.00 0.00 44 1012.5
20260509113053 57 86 1.0 2.0 0.00 0.00 0.00 45 1012.4
20260509112542 57 86 0.0 2.0 0.00 0.00 0.00 44 1012.4
20260509112041 58 86 0.0 3.0 0.00 0.00 0.00 44 1012.4
20260509111541 58 86 0.0 2.0 0.00 0.00 0.00 43 1012.3
20260509111041 59 86 0.0 2.0 0.00 0.00 0.00 40 1012.2
20260509110541 59 86 0.0 2.0 0.00 0.00 0.00 41 1012.1
20260509110039 59 86 0.0 2.0 0.00 0.00 0.00 40 1012.1
20260509105542 59 86 0.0 2.0 0.00 0.00 0.00 39 1012.1
20260509105039 59 86 0.0 2.0 0.00 0.00 0.00 39 1012.1
20260509104538 59 86 0.0 2.0 0.00 0.00 0.00 39 1012.1
20260509104037 59 86 0.0 1.0 0.00 0.00 0.00 39 1012.1
20260509103537 59 86 0.0 3.0 0.00 0.00 0.00 38 1012.2
20260509103043 59 86 0.0 3.0 0.00 0.00 0.00 38 1012.1
20260509102536 59 86 0.0 3.0 0.00 0.00 0.00 38 1012.1
20260509102035 59 86 0.0 3.0 0.00 0.00 0.00 38 1012.2
20260509101548 59 86 1.0 3.0 0.00 0.00 0.00 38 1012.2
20260509101033 59 86 0.0 2.0 0.00 0.00 0.00 38 1012.1
20260509100534 59 86 0.0 2.0 0.00 0.00 0.00 38 1012.1
20260509100033 59 86 0.0 3.0 0.00 0.00 0.00 38 1012.2
20260509095533 58 86 0.0 3.0 0.00 0.00 0.00 38 1012.2
20260509095032 58 86 0.0 3.0 0.00 0.00 0.00 39 1012.2
20260509094536 57 86 0.0 3.0 0.00 0.00 0.00 39 1012.2
20260509094033 57 86 1.0 3.0 0.00 0.00 0.00 39 1012.1
20260509093535 57 88 0.0 2.0 0.00 0.00 0.00 40 1012.1
20260509093032 57 88 0.0 2.0 0.00 0.00 0.00 40 1012.2
20260509092532 57 88 0.0 3.0 0.00 0.00 0.00 40 1012.2
20260509092031 56 88 1.0 3.0 0.00 0.00 0.00 40 1012.3
20260509091531 56 88 0.0 3.0 0.00 0.00 0.00 41 1012.3
20260509091031 55 88 1.0 3.0 0.00 0.00 0.00 42 1012.3
20260509090534 54 88 0.0 3.0 0.00 0.00 0.00 44 1012.3
20260509090037 54 88 0.0 3.0 0.00 0.00 0.00 45 1012.3
20260509085531 54 88 0.0 2.0 0.00 0.00 0.00 45 1012.4
20260509085028 54 88 0.0 2.0 0.00 0.00 0.00 44 1012.4
20260509084527 55 88 0.0 2.0 0.00 0.00 0.00 44 1012.5
20260509084026 56 88 0.0 3.0 0.00 0.00 0.00 43 1012.5
20260509083526 56 88 0.0 3.0 0.00 0.00 0.00 42 1012.5
20260509083035 57 88 0.0 3.0 0.00 0.00 0.00 40 1012.5
20260509082525 58 88 0.0 0.0 0.00 0.00 0.00 39 1012.5
20260509082024 60 88 0.0 0.0 0.00 0.00 0.00 36 1012.5
20260509081524 60 88 0.0 5.0 0.00 0.00 0.00 34 1012.6
20260509081023 60 88 0.0 8.0 0.00 0.00 0.00 32 1012.6
20260509080523 60 80 0.0 8.0 0.00 0.00 0.00 32 1012.7
20260509080023 60 63 0.0 4.0 0.00 0.00 0.00 32 1012.6
20260509075524 60 77 0.0 4.0 0.00 0.00 0.00 31 1012.6
20260509075025 60 78 1.0 5.0 0.00 0.00 0.00 31 1012.7
20260509074521 59 325 1.0 5.0 0.00 0.00 0.00 32 1012.7
20260509074020 59 349 0.0 3.0 0.00 0.00 0.00 33 1012.8
20260509073520 59 349 0.0 3.0 0.00 0.00 0.00 33 1012.8
20260509073028 59 304 0.0 6.0 0.00 0.00 0.00 32 1012.7
20260509072521 59 306 0.0 6.0 0.00 0.00 0.00 32 1012.7
20260509072018 59 257 1.0 6.0 0.00 0.00 0.00 33 1012.8
20260509071521 59 239 0.0 4.0 0.00 0.00 0.00 33 1012.7
20260509071018 59 239 1.0 4.0 0.00 0.00 0.00 33 1012.7
20260509070519 59 217 0.0 3.0 0.00 0.00 0.00 33 1012.8
20260509070018 59 217 0.0 5.0 0.00 0.00 0.00 33 1012.9
20260509065517 59 218 1.0 5.0 0.00 0.00 0.00 33 1012.9
20260509065017 59 181 1.0 6.0 0.00 0.00 0.00 33 1013.0
20260509064517 59 128 0.0 4.0 0.00 0.00 0.00 33 1013.0
20260509064017 59 216 0.0 3.0 0.00 0.00 0.00 34 1013.0
20260509063516 59 216 0.0 3.0 0.00 0.00 0.00 34 1013.0
20260509063021 59 199 0.0 3.0 0.00 0.00 0.00 34 1013.2
20260509062515 59 200 0.0 3.0 0.00 0.00 0.00 34 1013.1
20260509062014 59 200 1.0 3.0 0.00 0.00 0.00 34 1013.2
20260509061517 59 200 1.0 3.0 0.00 0.00 0.00 34 1013.2
20260509061017 58 199 0.0 4.0 0.00 0.00 0.00 36 1013.2
20260509060512 58 211 0.0 4.0 0.00 0.00 0.00 36 1013.2
20260509060012 58 319 1.0 3.0 0.00 0.00 0.00 36 1013.3
20260509055514 57 320 0.0 2.0 0.00 0.00 0.00 37 1013.2
20260509055012 57 320 0.0 3.0 0.00 0.00 0.00 38 1013.3
20260509054513 56 319 1.0 3.0 0.00 0.00 0.00 39 1013.3
20260509054010 56 319 0.0 2.0 0.00 0.00 0.00 40 1013.4
20260509053511 56 319 0.0 2.0 0.00 0.00 0.00 41 1013.5
20260509053011 56 319 0.0 3.0 0.00 0.00 0.00 41 1013.5
20260509052511 56 319 0.0 3.0 0.00 0.00 0.00 41 1013.5
20260509052009 56 319 0.0 1.0 0.00 0.00 0.00 42 1013.5
20260509051509 56 319 0.0 9.0 0.00 0.00 0.00 41 1013.5
20260509051009 56 319 1.0 9.0 0.00 0.00 0.00 42 1013.5
20260509050511 56 38 0.0 0.0 0.00 0.00 0.00 41 1013.4
20260509050009 57 38 0.0 0.0 0.00 0.00 0.00 41 1013.5
20260509045508 57 38 0.0 0.0 0.00 0.00 0.00 39 1013.5
20260509045006 57 38 0.0 0.0 0.00 0.00 0.00 38 1013.5
20260509044504 58 38 0.0 0.0 0.00 0.00 0.00 38 1013.4
20260509044004 58 38 0.0 0.0 0.00 0.00 0.00 38 1013.5
20260509043503 58 38 0.0 0.0 0.00 0.00 0.00 37 1013.5
20260509043003 58 38 0.0 0.0 0.00 0.00 0.00 37 1013.5
20260509042503 58 38 0.0 0.0 0.00 0.00 0.00 37 1013.5
20260509042003 58 38 0.0 2.0 0.00 0.00 0.00 38 1013.5
20260509041502 58 38 0.0 2.0 0.00 0.00 0.00 37 1013.6
20260509041003 58 37 0.0 3.0 0.00 0.00 0.00 37 1013.6
20260509040603 58 37 0.0 3.0 0.00 0.00 0.00 36 1013.7
20260509040104 59 44 0.0 2.0 0.00 0.00 0.00 36 1013.6
20260509035559 59 44 0.0 4.0 0.00 0.00 0.00 35 1013.6
20260509035058 59 43 0.0 6.0 0.00 0.00 0.00 35 1013.7
20260509034559 59 101 1.0 6.0 0.00 0.00 0.00 34 1013.7
20260509034059 59 78 1.0 5.0 0.00 0.00 0.00 35 1013.7
20260509034001 59 78 1.0 5.0 0.00 0.00 0.00 35 1013.7
20260509033603 59 78 2.0 5.0 0.00 0.00 0.00 34 1013.7
20260509033059 60 38 1.0 5.0 0.00 0.00 0.00 34 1013.7
20260509032559 60 86 1.0 6.0 0.00 0.00 0.00 34 1013.7
20260509032058 60 84 1.0 6.0 0.00 0.00 0.00 34 1013.7
20260509031602 60 61 1.0 5.0 0.00 0.00 0.00 33 1013.8
20260509031058 61 76 2.0 5.0 0.00 0.00 0.00 33 1013.7
20260509030558 61 90 1.0 6.0 0.00 0.00 0.00 33 1013.8
20260509030113 61 100 2.0 6.0 0.00 0.00 0.00 32 1013.9
20260509025557 61 58 1.0 7.0 0.00 0.00 0.00 32 1013.9
20260509025101 61 72 1.0 6.0 0.00 0.00 0.00 33 1014.0
20260509024601 61 46 1.0 6.0 0.00 0.00 0.00 32 1014.1
20260509024057 61 88 2.0 6.0 0.00 0.00 0.00 32 1014.1
20260509023559 61 70 2.0 5.0 0.00 0.00 0.00 32 1014.1
20260509023059 61 84 1.0 7.0 0.00 0.00 0.00 32 1014.2
20260509022557 61 97 2.0 7.0 0.00 0.00 0.00 32 1014.2
20260509022101 61 92 2.0 7.0 0.00 0.00 0.00 31 1014.0
20260509021557 61 41 2.0 6.0 0.00 0.00 0.00 32 1014.1
20260509021101 61 77 1.0 6.0 0.00 0.00 0.00 32 1014.1
20260509020556 61 110 2.0 9.0 0.00 0.00 0.00 31 1014.0
20260509020106 61 66 3.0 9.0 0.00 0.00 0.00 32 1014.0
20260509015556 61 112 2.0 8.0 0.00 0.00 0.00 32 1014.0
20260509015056 61 100 3.0 9.0 0.00 0.00 0.00 33 1014.0
20260509014557 61 116 3.0 9.0 0.00 0.00 0.00 33 1014.0
20260509014055 61 97 1.0 9.0 0.00 0.00 0.00 33 1014.0
20260509013555 61 57 2.0 9.0 0.00 0.00 0.00 33 1014.1
20260509013100 61 94 2.0 9.0 0.00 0.00 0.00 33 1013.9
20260509012555 61 88 3.0 9.0 0.00 0.00 0.00 33 1013.9
20260509012055 61 59 2.0 5.0 0.00 0.00 0.00 34 1013.9
20260509011558 61 81 1.0 7.0 0.00 0.00 0.00 34 1013.9
20260509011055 60 103 2.0 7.0 0.00 0.00 0.00 34 1013.8
20260509010554 60 142 1.0 5.0 0.00 0.00 0.00 34 1013.9
20260509010054 60 146 2.0 5.0 0.00 0.00 0.00 34 1013.8
20260509005554 60 249 1.0 5.0 0.00 0.00 0.00 34 1013.8
20260509005054 60 234 0.0 4.0 0.00 0.00 0.00 34 1013.9
20260509004559 60 234 1.0 4.0 0.00 0.00 0.00 33 1013.8
20260509004054 61 225 0.0 1.0 0.00 0.00 0.00 32 1013.7
20260509003554 61 225 0.0 2.0 0.00 0.00 0.00 32 1013.7
20260509003057 61 225 0.0 3.0 0.00 0.00 0.00 31 1013.6
20260509002553 62 225 0.0 4.0 0.00 0.00 0.00 32 1013.7
20260509002053 62 225 1.0 4.0 0.00 0.00 0.00 29 1013.6
20260509001553 62 189 0.0 1.0 0.00 0.00 0.00 30 1013.6
20260509001053 63 189 0.0 1.0 0.00 0.00 0.00 28 1013.6
20260509000552 63 189 0.0 0.0 0.00 0.00 0.00 28 1013.6
20260509000055 63 189 0.0 0.0 0.00 0.00 0.00 28 1013.6
20260508235553 64 189 0.0 0.0 0.00 0.00 0.00 28 1013.4
20260508235052 64 189 0.0 0.0 0.00 0.00 0.00 27 1013.4
20260508234553 64 189 0.0 0.0 0.00 0.00 0.00 27 1013.3
20260508234056 64 189 0.0 0.0 0.00 0.00 0.00 28 1013.4
20260508233552 64 189 0.0 0.0 0.00 0.00 0.00 27 1013.4
20260508233052 65 189 0.0 0.0 0.00 0.00 0.00 27 1013.3
20260508232554 65 189 0.0 1.0 0.00 0.00 0.00 29 1013.4
20260508232051 65 189 0.0 1.0 0.00 0.00 0.00 28 1013.3
20260508231551 66 189 0.0 0.0 0.00 0.00 0.00 27 1013.4
20260508231051 66 189 0.0 1.0 0.00 0.00 0.00 26 1013.3
20260508230554 67 189 0.0 1.0 0.00 0.00 0.00 27 1013.3
20260508230051 67 189 0.0 1.0 0.00 0.00 0.00 27 1013.3
20260508225550 67 189 0.0 0.0 0.00 0.00 0.00 28 1013.3
20260508225053 67 189 0.0 0.0 0.00 0.00 0.00 28 1013.3
20260508224622 67 189 0.0 2.0 0.00 0.00 0.00 27 1013.3
20260508224048 68 189 0.0 2.0 0.00 0.00 0.00 24 1013.2
20260508223548 68 189 0.0 1.0 0.00 0.00 0.00 22 1013.3
20260508223053 68 189 0.0 2.0 0.00 0.00 0.00 23 1013.1
20260508222551 69 189 0.0 4.0 0.00 0.00 0.00 22 1013.1
20260508222047 69 189 0.0 4.0 0.00 0.00 0.00 22 1013.1
20260508221547 70 182 0.0 4.0 0.00 0.00 0.00 19 1013.0
20260508221046 70 182 0.0 4.0 0.00 0.00 0.00 20 1013.0
20260508220545 70 182 0.0 2.0 0.00 0.00 0.00 20 1013.0
20260508220051 69 182 0.0 4.0 0.00 0.00 0.00 20 1013.0
20260508215544 68 182 0.0 4.0 0.00 0.00 0.00 22 1013.2
20260508215044 68 182 0.0 3.0 0.00 0.00 0.00 22 1013.2
20260508214544 68 182 0.0 3.0 0.00 0.00 0.00 21 1013.3
20260508214045 68 182 0.0 3.0 0.00 0.00 0.00 22 1013.3
20260508213543 68 182 0.0 5.0 0.00 0.00 0.00 23 1013.3
20260508213044 68 182 1.0 8.0 0.00 0.00 0.00 20 1013.3
20260508212544 69 172 1.0 8.0 0.00 0.00 0.00 19 1013.3
20260508212045 70 178 2.0 7.0 0.00 0.00 0.00 19 1013.3
20260508211550 70 215 2.0 7.0 0.00 0.00 0.00 19 1013.3
20260508211044 70 250 1.0 8.0 0.00 0.00 0.00 19 1013.2
20260508210542 70 236 1.0 7.0 0.00 0.00 0.00 17 1013.2
20260508210046 70 216 1.0 3.0 0.00 0.00 0.00 17 1013.3
20260508205546 70 215 1.0 5.0 0.00 0.00 0.00 17 1013.4
20260508205041 71 218 1.0 5.0 0.00 0.00 0.00 15 1013.5
20260508204541 72 27 0.0 6.0 0.00 0.00 0.00 18 1013.5
20260508204040 73 62 1.0 5.0 0.00 0.00 0.00 15 1013.4
20260508203540 73 74 2.0 5.0 0.00 0.00 0.00 15 1013.6
20260508203043 73 159 0.0 6.0 0.00 0.00 0.00 18 1013.4
20260508202539 72 128 1.0 6.0 0.00 0.00 0.00 17 1013.5
20260508202037 71 198 1.0 6.0 0.00 0.00 0.00 18 1013.5
20260508201536 71 82 1.0 6.0 0.00 0.00 0.00 17 1013.5